Location: ??
(35.5653°N, 139.6194°E)
Time: 04:15:36
(UTC+00:00)

SMAP - Pass Details

Date: 13 December 2025
Orbit: 681 x 683 km, 98.1° (Epoch: 21 January)

Event Time Altitude Azimuth Distance (km) Brightness Sun altitude
Rises 20:55:00 0° 12° (NNE) 3,050 6.3 -9.6°
Reaches altitude 10° 20:57:15 10° 13° (NNE) 2,130 5.5 -9.2°
Maximum altitude 21:01:56 86° 104° (ESE) 689 3.1 -8.3°
Drops below altitude 10° 21:06:34 10° 192° (SSW) 2,115 5.7 -7.5°
Sets 21:08:47 0° 193° (SSW) 3,025 6.5 -7.0°
